Year,Month,Day,Hour,Minute,Value (Times are PST for temperature in C)
2014,07,27,00,00,16.10
2014,07,27,00,01,16.10
2014,07,27,00,02,16.10
2014,07,27,00,03,16.10
2014,07,27,00,04,16.10
2014,07,27,00,05,16.00
2014,07,27,00,06,16.00
2014,07,27,00,07,16.00
2014,07,27,00,08,15.90
2014,07,27,00,09,15.90
2014,07,27,00,10,15.90
2014,07,27,00,11,15.80
2014,07,27,00,12,15.80
2014,07,27,00,13,15.80
2014,07,27,00,14,15.80
2014,07,27,00,15,15.70
2014,07,27,00,16,15.70
2014,07,27,00,17,15.70
2014,07,27,00,18,15.70
2014,07,27,00,19,15.60
2014,07,27,00,20,15.60
2014,07,27,00,21,15.60
2014,07,27,00,22,15.60
2014,07,27,00,23,15.60
2014,07,27,00,24,15.60
2014,07,27,00,25,15.50
2014,07,27,00,26,15.50
2014,07,27,00,27,15.50
2014,07,27,00,28,15.40
2014,07,27,00,29,15.40
2014,07,27,00,30,15.40
2014,07,27,00,31,15.40
2014,07,27,00,32,15.40
2014,07,27,00,33,15.30
2014,07,27,00,34,15.30
2014,07,27,00,35,15.30
2014,07,27,00,36,15.30
2014,07,27,00,37,15.30
2014,07,27,00,38,15.30
2014,07,27,00,39,15.20
2014,07,27,00,40,15.20
2014,07,27,00,41,15.30
2014,07,27,00,42,15.30
2014,07,27,00,43,15.30
2014,07,27,00,44,15.30
2014,07,27,00,45,15.30
2014,07,27,00,46,15.30
2014,07,27,00,47,15.40
2014,07,27,00,48,15.40
2014,07,27,00,49,15.40
2014,07,27,00,50,15.50
2014,07,27,00,51,15.50
2014,07,27,00,52,15.60
2014,07,27,00,53,15.60
2014,07,27,00,54,15.60
2014,07,27,00,55,15.60
2014,07,27,00,56,15.60
2014,07,27,00,57,15.60
2014,07,27,00,58,15.60
2014,07,27,00,59,15.60
2014,07,27,01,00,15.60
2014,07,27,01,01,15.60
2014,07,27,01,02,15.60
2014,07,27,01,03,15.50
2014,07,27,01,04,15.50
2014,07,27,01,05,15.50
2014,07,27,01,06,15.40
2014,07,27,01,07,15.40
2014,07,27,01,08,15.40
2014,07,27,01,09,15.40
2014,07,27,01,10,15.40
2014,07,27,01,11,15.50
2014,07,27,01,12,15.50
2014,07,27,01,13,15.50
2014,07,27,01,14,15.60
2014,07,27,01,15,15.60
2014,07,27,01,16,15.60
2014,07,27,01,17,15.60
2014,07,27,01,18,15.60
2014,07,27,01,19,15.60
2014,07,27,01,20,15.60
2014,07,27,01,21,15.60
2014,07,27,01,22,15.60
2014,07,27,01,23,15.60
2014,07,27,01,24,15.60
2014,07,27,01,25,15.60
2014,07,27,01,26,15.60
2014,07,27,01,27,15.60
2014,07,27,01,28,15.60
2014,07,27,01,29,15.60
2014,07,27,01,30,15.60
2014,07,27,01,31,15.60
2014,07,27,01,32,15.50
2014,07,27,01,33,15.50
2014,07,27,01,34,15.50
2014,07,27,01,35,15.50
2014,07,27,01,36,15.50
2014,07,27,01,37,15.40
2014,07,27,01,38,15.40
2014,07,27,01,39,15.30
2014,07,27,01,40,15.30
2014,07,27,01,41,15.30
2014,07,27,01,42,15.30
2014,07,27,01,43,15.30
2014,07,27,01,44,15.20
2014,07,27,01,45,15.20
2014,07,27,01,46,15.20
2014,07,27,01,47,15.10
2014,07,27,01,48,15.10
2014,07,27,01,49,15.10
2014,07,27,01,50,15.10
2014,07,27,01,51,15.10
2014,07,27,01,52,15.10
2014,07,27,01,53,15.10
2014,07,27,01,54,15.10
2014,07,27,01,55,15.00
2014,07,27,01,56,15.00
2014,07,27,01,57,15.00
2014,07,27,01,58,14.90
2014,07,27,01,59,14.90
2014,07,27,02,00,14.90
2014,07,27,02,01,14.90
2014,07,27,02,02,14.80
2014,07,27,02,03,14.80
2014,07,27,02,04,14.80
2014,07,27,02,05,14.80
2014,07,27,02,06,14.80
2014,07,27,02,07,14.70
2014,07,27,02,08,14.70
2014,07,27,02,09,14.70
2014,07,27,02,10,14.70
2014,07,27,02,11,14.70
2014,07,27,02,12,14.60
2014,07,27,02,13,14.60
2014,07,27,02,14,14.60
2014,07,27,02,15,14.50
2014,07,27,02,16,14.50
2014,07,27,02,17,14.50
2014,07,27,02,18,14.40
2014,07,27,02,19,14.40
2014,07,27,02,20,14.40
2014,07,27,02,21,14.40
2014,07,27,02,22,14.30
2014,07,27,02,23,14.30
2014,07,27,02,24,14.30
2014,07,27,02,25,14.30
2014,07,27,02,26,14.30
2014,07,27,02,27,14.30
2014,07,27,02,28,14.30
2014,07,27,02,29,14.30
2014,07,27,02,30,14.30
2014,07,27,02,31,14.30
2014,07,27,02,32,14.30
2014,07,27,02,33,14.30
2014,07,27,02,34,14.20
2014,07,27,02,35,14.20
2014,07,27,02,36,14.20
2014,07,27,02,37,14.20
2014,07,27,02,38,14.20
2014,07,27,02,39,14.20
2014,07,27,02,40,14.20
2014,07,27,02,41,14.10
2014,07,27,02,42,14.10
2014,07,27,02,43,14.10
2014,07,27,02,44,14.10
2014,07,27,02,45,14.10
2014,07,27,02,46,14.10
2014,07,27,02,47,14.10
2014,07,27,02,48,14.10
2014,07,27,02,49,14.10
2014,07,27,02,50,14.00
2014,07,27,02,51,14.00
2014,07,27,02,52,14.00
2014,07,27,02,53,14.00
2014,07,27,02,54,14.00
2014,07,27,02,55,14.00
2014,07,27,02,56,14.00
2014,07,27,02,57,14.00
2014,07,27,02,58,14.00
2014,07,27,02,59,14.00
2014,07,27,03,00,13.90
2014,07,27,03,01,13.90
2014,07,27,03,02,13.90
2014,07,27,03,03,13.90
2014,07,27,03,04,13.90
2014,07,27,03,05,13.90
2014,07,27,03,06,13.90
2014,07,27,03,07,13.90
2014,07,27,03,08,13.90
2014,07,27,03,09,13.90
2014,07,27,03,10,13.90
2014,07,27,03,11,13.90
2014,07,27,03,12,13.80
2014,07,27,03,13,13.80
2014,07,27,03,14,13.80
2014,07,27,03,15,13.80
2014,07,27,03,16,13.80
2014,07,27,03,17,13.80
2014,07,27,03,18,13.80
2014,07,27,03,19,13.80
2014,07,27,03,20,13.80
2014,07,27,03,21,13.80
2014,07,27,03,22,13.70
2014,07,27,03,23,13.70
2014,07,27,03,24,13.70
2014,07,27,03,25,13.70
2014,07,27,03,26,13.70
2014,07,27,03,27,13.70
2014,07,27,03,28,13.70
2014,07,27,03,29,13.70
2014,07,27,03,30,13.70
2014,07,27,03,31,13.70
2014,07,27,03,32,13.60
2014,07,27,03,33,13.60
2014,07,27,03,34,13.60
2014,07,27,03,35,13.60
2014,07,27,03,36,13.60
2014,07,27,03,37,13.60
2014,07,27,03,38,13.60
2014,07,27,03,39,13.50
2014,07,27,03,40,13.50
2014,07,27,03,41,13.50
2014,07,27,03,42,13.40
2014,07,27,03,43,13.40
2014,07,27,03,44,13.40
2014,07,27,03,45,13.40
2014,07,27,03,46,13.40
2014,07,27,03,47,13.30
2014,07,27,03,48,13.30
2014,07,27,03,49,13.30
2014,07,27,03,50,13.30
2014,07,27,03,51,13.30
2014,07,27,03,52,13.30
2014,07,27,03,53,13.30
2014,07,27,03,54,13.30
2014,07,27,03,55,13.20
2014,07,27,03,56,13.20
2014,07,27,03,57,13.20
2014,07,27,03,58,13.20
2014,07,27,03,59,13.20
2014,07,27,04,00,13.20
2014,07,27,04,01,13.20
2014,07,27,04,02,13.30
2014,07,27,04,03,13.30
2014,07,27,04,04,13.20
2014,07,27,04,05,13.20
2014,07,27,04,06,13.20
2014,07,27,04,07,13.20
2014,07,27,04,08,13.20
2014,07,27,04,09,13.20
2014,07,27,04,10,13.10
2014,07,27,04,11,13.10
2014,07,27,04,12,13.10
2014,07,27,04,13,13.10
2014,07,27,04,14,13.10
2014,07,27,04,15,13.10
2014,07,27,04,16,13.10
2014,07,27,04,17,13.10
2014,07,27,04,18,13.10
2014,07,27,04,19,13.10
2014,07,27,04,20,13.10
2014,07,27,04,21,13.10
2014,07,27,04,22,13.10
2014,07,27,04,23,13.00
2014,07,27,04,24,13.00
2014,07,27,04,25,13.00
2014,07,27,04,26,12.90
2014,07,27,04,27,12.90
2014,07,27,04,28,12.90
2014,07,27,04,29,12.90
2014,07,27,04,30,12.80
2014,07,27,04,31,12.80
2014,07,27,04,32,12.80
2014,07,27,04,33,12.80
2014,07,27,04,34,12.80
2014,07,27,04,35,12.80
2014,07,27,04,36,12.70
2014,07,27,04,37,12.70
2014,07,27,04,38,12.70
2014,07,27,04,39,12.70
2014,07,27,04,40,12.70
2014,07,27,04,41,12.70
2014,07,27,04,42,12.70
2014,07,27,04,43,12.70
2014,07,27,04,44,12.70
2014,07,27,04,45,12.70
2014,07,27,04,46,12.70
2014,07,27,04,47,12.70
2014,07,27,04,48,12.70
2014,07,27,04,49,12.70
2014,07,27,04,50,12.60
2014,07,27,04,51,12.60
2014,07,27,04,52,12.60
2014,07,27,04,53,12.60
2014,07,27,04,54,12.60
2014,07,27,04,55,12.60
2014,07,27,04,56,12.60
2014,07,27,04,57,12.60
2014,07,27,04,58,12.60
2014,07,27,04,59,12.60
2014,07,27,05,00,12.70
2014,07,27,05,01,12.70
2014,07,27,05,02,12.70
2014,07,27,05,03,12.70
2014,07,27,05,04,12.70
2014,07,27,05,05,12.80
2014,07,27,05,06,12.80
2014,07,27,05,07,12.80
2014,07,27,05,08,12.80
2014,07,27,05,09,12.80
2014,07,27,05,10,12.80
2014,07,27,05,11,12.70
2014,07,27,05,12,12.70
2014,07,27,05,13,12.70
2014,07,27,05,14,12.70
2014,07,27,05,15,12.70
2014,07,27,05,16,12.70
2014,07,27,05,17,12.70
2014,07,27,05,18,12.70
2014,07,27,05,19,12.70
2014,07,27,05,20,12.70
2014,07,27,05,21,12.70
2014,07,27,05,22,12.70
2014,07,27,05,23,12.60
2014,07,27,05,24,12.60
2014,07,27,05,25,12.60
2014,07,27,05,26,12.60
2014,07,27,05,27,12.60
2014,07,27,05,28,12.60
2014,07,27,05,29,12.60
2014,07,27,05,30,12.50
2014,07,27,05,31,12.50
2014,07,27,05,32,12.50
2014,07,27,05,33,12.50
2014,07,27,05,34,12.40
2014,07,27,05,35,12.40
2014,07,27,05,36,12.40
2014,07,27,05,37,12.40
2014,07,27,05,38,12.40
2014,07,27,05,39,12.40
2014,07,27,05,40,12.40
2014,07,27,05,41,12.40
2014,07,27,05,42,12.40
2014,07,27,05,43,12.40
2014,07,27,05,44,12.40
2014,07,27,05,45,12.40
2014,07,27,05,46,12.40
2014,07,27,05,47,12.40
2014,07,27,05,48,12.40
2014,07,27,05,49,12.40
2014,07,27,05,50,12.40
2014,07,27,05,51,12.30
2014,07,27,05,52,12.30
2014,07,27,05,53,12.40
2014,07,27,05,54,12.30
2014,07,27,05,55,12.30
2014,07,27,05,56,12.30
2014,07,27,05,57,12.30
2014,07,27,05,58,12.30
2014,07,27,05,59,12.30
2014,07,27,06,00,12.30
2014,07,27,06,01,12.30
2014,07,27,06,02,12.30
2014,07,27,06,03,12.30
2014,07,27,06,04,12.40
2014,07,27,06,05,12.40
2014,07,27,06,06,12.40
2014,07,27,06,07,12.40
2014,07,27,06,08,12.40
2014,07,27,06,09,12.40
2014,07,27,06,10,12.40
2014,07,27,06,11,12.40
2014,07,27,06,12,12.50
2014,07,27,06,13,12.50
2014,07,27,06,14,12.50
2014,07,27,06,15,12.50
2014,07,27,06,16,12.60
2014,07,27,06,17,12.60
2014,07,27,06,18,12.60
2014,07,27,06,19,12.60
2014,07,27,06,20,12.60
2014,07,27,06,21,12.60
2014,07,27,06,22,12.60
2014,07,27,06,23,12.60
2014,07,27,06,24,12.70
2014,07,27,06,25,12.70
2014,07,27,06,26,12.70
2014,07,27,06,27,12.70
2014,07,27,06,28,12.70
2014,07,27,06,29,12.70
2014,07,27,06,30,12.70
2014,07,27,06,31,12.70
2014,07,27,06,32,12.70
2014,07,27,06,33,12.70
2014,07,27,06,34,12.70
2014,07,27,06,35,12.70
2014,07,27,06,36,12.70
2014,07,27,06,37,12.70
2014,07,27,06,38,12.70
2014,07,27,06,39,12.70
2014,07,27,06,40,12.70
2014,07,27,06,41,12.70
2014,07,27,06,42,12.70
2014,07,27,06,43,12.80
2014,07,27,06,44,12.80
2014,07,27,06,45,12.80
2014,07,27,06,46,12.80
2014,07,27,06,47,12.80
2014,07,27,06,48,12.90
2014,07,27,06,49,12.90
2014,07,27,06,50,12.90
2014,07,27,06,51,12.90
2014,07,27,06,52,12.90
2014,07,27,06,53,13.00
2014,07,27,06,54,13.00
2014,07,27,06,55,13.00
2014,07,27,06,56,13.10
2014,07,27,06,57,13.10
2014,07,27,06,58,13.10
2014,07,27,06,59,13.20
2014,07,27,07,00,13.20
2014,07,27,07,01,13.20
2014,07,27,07,02,13.20
2014,07,27,07,03,13.30
2014,07,27,07,04,13.30
2014,07,27,07,05,13.30
2014,07,27,07,06,13.40
2014,07,27,07,07,13.40
2014,07,27,07,08,13.40
2014,07,27,07,09,13.50
2014,07,27,07,10,13.50
2014,07,27,07,11,13.60
2014,07,27,07,12,13.60
2014,07,27,07,13,13.70
2014,07,27,07,14,13.70
2014,07,27,07,15,13.80
2014,07,27,07,16,13.80
2014,07,27,07,17,13.90
2014,07,27,07,18,13.90
2014,07,27,07,19,13.90
2014,07,27,07,20,14.00
2014,07,27,07,21,14.00
2014,07,27,07,22,14.10
2014,07,27,07,23,14.10
2014,07,27,07,24,14.20
2014,07,27,07,25,14.20
2014,07,27,07,26,14.20
2014,07,27,07,27,14.30
2014,07,27,07,28,14.30
2014,07,27,07,29,14.40
2014,07,27,07,30,14.40
2014,07,27,07,31,14.40
2014,07,27,07,32,14.50
2014,07,27,07,33,14.60
2014,07,27,07,34,14.60
2014,07,27,07,35,14.70
2014,07,27,07,36,14.80
2014,07,27,07,37,14.80
2014,07,27,07,38,14.90
2014,07,27,07,39,14.90
2014,07,27,07,40,15.00
2014,07,27,07,41,15.10
2014,07,27,07,42,15.10
2014,07,27,07,43,15.20
2014,07,27,07,44,15.20
2014,07,27,07,45,15.30
2014,07,27,07,46,15.30
2014,07,27,07,47,15.40
2014,07,27,07,48,15.50
2014,07,27,07,49,15.50
2014,07,27,07,50,15.60
2014,07,27,07,51,15.60
2014,07,27,07,52,15.70
2014,07,27,07,53,15.80
2014,07,27,07,54,15.80
2014,07,27,07,55,15.90
2014,07,27,07,56,16.00
2014,07,27,07,57,16.00
2014,07,27,07,58,16.10
2014,07,27,07,59,16.20
2014,07,27,08,00,16.20
2014,07,27,08,01,16.30
2014,07,27,08,02,16.40
2014,07,27,08,03,16.40
2014,07,27,08,04,16.50
2014,07,27,08,05,16.60
2014,07,27,08,06,16.60
2014,07,27,08,07,16.70
2014,07,27,08,08,16.80
2014,07,27,08,09,16.80
2014,07,27,08,10,16.90
2014,07,27,08,11,17.00
2014,07,27,08,12,17.10
2014,07,27,08,13,17.20
2014,07,27,08,14,17.20
2014,07,27,08,15,17.40
2014,07,27,08,16,17.50
2014,07,27,08,17,17.60
2014,07,27,08,18,17.70
2014,07,27,08,19,17.80
2014,07,27,08,20,18.00
2014,07,27,08,21,18.10
2014,07,27,08,22,18.20
2014,07,27,08,23,18.30
2014,07,27,08,24,18.40
2014,07,27,08,25,18.50
2014,07,27,08,26,18.50
2014,07,27,08,27,18.60
2014,07,27,08,28,18.70
2014,07,27,08,29,18.80
2014,07,27,08,30,18.80
2014,07,27,08,31,18.90
2014,07,27,08,32,18.90
2014,07,27,08,33,19.00
2014,07,27,08,34,19.00
2014,07,27,08,35,19.10
2014,07,27,08,36,19.10
2014,07,27,08,37,19.20
2014,07,27,08,38,19.30
2014,07,27,08,39,19.30
2014,07,27,08,40,19.30
2014,07,27,08,41,19.30
2014,07,27,08,42,19.40
2014,07,27,08,43,19.50
2014,07,27,08,44,19.60
2014,07,27,08,45,19.60
2014,07,27,08,46,19.70
2014,07,27,08,47,19.80
2014,07,27,08,48,19.80
2014,07,27,08,49,19.90
2014,07,27,08,50,19.90
2014,07,27,08,51,20.00
2014,07,27,08,52,20.10
2014,07,27,08,53,20.10
2014,07,27,08,54,20.20
2014,07,27,08,55,20.30
2014,07,27,08,56,20.30
2014,07,27,08,57,20.40
2014,07,27,08,58,20.40
2014,07,27,08,59,20.50
2014,07,27,09,00,20.60
2014,07,27,09,01,20.60
2014,07,27,09,02,20.70
2014,07,27,09,03,20.70
2014,07,27,09,04,20.70
2014,07,27,09,05,20.70
2014,07,27,09,06,20.70
2014,07,27,09,07,20.70
2014,07,27,09,08,20.70
2014,07,27,09,09,20.60
2014,07,27,09,10,20.60
2014,07,27,09,11,20.60
2014,07,27,09,12,20.60
2014,07,27,09,13,20.60
2014,07,27,09,14,20.60
2014,07,27,09,15,20.60
2014,07,27,09,16,20.60
2014,07,27,09,17,20.60
2014,07,27,09,18,20.60
2014,07,27,09,19,20.60
2014,07,27,09,20,20.60
2014,07,27,09,21,20.60
2014,07,27,09,22,20.60
2014,07,27,09,23,20.60
2014,07,27,09,24,20.70
2014,07,27,09,25,20.70
2014,07,27,09,26,20.70
2014,07,27,09,27,20.70
2014,07,27,09,28,20.70
2014,07,27,09,29,20.70
2014,07,27,09,30,20.70
2014,07,27,09,31,20.80
2014,07,27,09,32,20.80
2014,07,27,09,33,20.80
2014,07,27,09,34,20.90
2014,07,27,09,35,20.90
2014,07,27,09,36,20.90
2014,07,27,09,37,20.90
2014,07,27,09,38,20.90
2014,07,27,09,39,20.90
2014,07,27,09,40,20.90
2014,07,27,09,41,20.90
2014,07,27,09,42,20.90
2014,07,27,09,43,20.90
2014,07,27,09,44,20.90
2014,07,27,09,45,20.90
2014,07,27,09,46,20.90
2014,07,27,09,47,20.90
2014,07,27,09,48,21.00
2014,07,27,09,49,21.00
2014,07,27,09,50,21.00
2014,07,27,09,51,21.10
2014,07,27,09,52,21.10
2014,07,27,09,53,21.10
2014,07,27,09,54,21.10
2014,07,27,09,55,21.10
2014,07,27,09,56,21.00
2014,07,27,09,57,21.00
2014,07,27,09,58,21.00
2014,07,27,09,59,21.00
2014,07,27,10,00,21.10
2014,07,27,10,01,21.10
2014,07,27,10,02,21.10
2014,07,27,10,03,21.10
2014,07,27,10,04,21.00
2014,07,27,10,05,21.00
2014,07,27,10,06,21.00
2014,07,27,10,07,21.00
2014,07,27,10,08,21.00
2014,07,27,10,09,21.00
2014,07,27,10,10,21.10
2014,07,27,10,11,21.10
2014,07,27,10,12,21.20
2014,07,27,10,13,21.30
2014,07,27,10,14,21.30
2014,07,27,10,15,21.40
2014,07,27,10,16,21.50
2014,07,27,10,17,21.50
2014,07,27,10,18,21.40
2014,07,27,10,19,21.40
2014,07,27,10,20,21.40
2014,07,27,10,21,21.40
2014,07,27,10,22,21.40
2014,07,27,10,23,21.40
2014,07,27,10,24,21.40
2014,07,27,10,25,21.40
2014,07,27,10,26,21.40
2014,07,27,10,27,21.40
2014,07,27,10,28,21.50
2014,07,27,10,29,21.50
2014,07,27,10,30,21.60
2014,07,27,10,31,21.70
2014,07,27,10,32,21.70
2014,07,27,10,33,21.80
2014,07,27,10,34,21.80
2014,07,27,10,35,21.80
2014,07,27,10,36,21.80
2014,07,27,10,37,21.80
2014,07,27,10,38,21.80
2014,07,27,10,39,21.80
2014,07,27,10,40,21.90
2014,07,27,10,41,22.00
2014,07,27,10,42,22.00
2014,07,27,10,43,22.10
2014,07,27,10,44,22.20
2014,07,27,10,45,22.30
2014,07,27,10,46,22.30
2014,07,27,10,47,22.40
2014,07,27,10,48,22.50
2014,07,27,10,49,22.50
2014,07,27,10,50,22.60
2014,07,27,10,51,22.60
2014,07,27,10,52,22.70
2014,07,27,10,53,22.70
2014,07,27,10,54,22.70
2014,07,27,10,55,22.80
2014,07,27,10,56,22.80
2014,07,27,10,57,22.90
2014,07,27,10,58,23.00
2014,07,27,10,59,23.00
2014,07,27,11,00,23.00
2014,07,27,11,01,23.00
2014,07,27,11,02,23.00
2014,07,27,11,03,23.10
2014,07,27,11,04,23.10
2014,07,27,11,05,23.10
2014,07,27,11,06,23.10
2014,07,27,11,07,23.10
2014,07,27,11,08,23.10
2014,07,27,11,09,23.10
2014,07,27,11,10,23.10
2014,07,27,11,11,23.10
2014,07,27,11,12,23.10
2014,07,27,11,13,23.10
2014,07,27,11,14,23.10
2014,07,27,11,15,23.00
2014,07,27,11,16,23.10
2014,07,27,11,17,23.10
2014,07,27,11,18,23.10
2014,07,27,11,19,23.10
2014,07,27,11,20,23.10
2014,07,27,11,21,23.20
2014,07,27,11,22,23.20
2014,07,27,11,23,23.20
2014,07,27,11,24,23.30
2014,07,27,11,25,23.30
2014,07,27,11,26,23.40
2014,07,27,11,27,23.40
2014,07,27,11,28,23.50
2014,07,27,11,29,23.60
2014,07,27,11,30,23.60
2014,07,27,11,31,23.60
2014,07,27,11,32,23.60
2014,07,27,11,33,23.70
2014,07,27,11,34,23.70
2014,07,27,11,35,23.70
2014,07,27,11,36,23.70
2014,07,27,11,37,23.70
2014,07,27,11,38,23.80
2014,07,27,11,39,23.80
2014,07,27,11,40,23.80
2014,07,27,11,41,23.80
2014,07,27,11,42,23.90
2014,07,27,11,43,23.90
2014,07,27,11,44,23.90
2014,07,27,11,45,23.90
2014,07,27,11,46,24.00
2014,07,27,11,47,24.00
2014,07,27,11,48,24.00
2014,07,27,11,49,24.10
2014,07,27,11,50,24.10
2014,07,27,11,51,24.10
2014,07,27,11,52,24.10
2014,07,27,11,53,24.10
2014,07,27,11,54,24.10
2014,07,27,11,55,24.20
2014,07,27,11,56,24.20
2014,07,27,11,57,24.30
2014,07,27,11,58,24.30
2014,07,27,11,59,24.30
2014,07,27,12,00,24.20
2014,07,27,12,01,24.10
2014,07,27,12,02,24.10
2014,07,27,12,03,24.10
2014,07,27,12,04,24.10
2014,07,27,12,05,24.10
2014,07,27,12,06,24.10
2014,07,27,12,07,24.10
2014,07,27,12,08,24.10
2014,07,27,12,09,24.10
2014,07,27,12,10,24.00
2014,07,27,12,11,24.00
2014,07,27,12,12,23.90
2014,07,27,12,13,24.00
2014,07,27,12,14,24.00
2014,07,27,12,15,24.00
2014,07,27,12,16,24.10
2014,07,27,12,17,24.10
2014,07,27,12,18,24.10
2014,07,27,12,19,24.20
2014,07,27,12,20,24.20
2014,07,27,12,21,24.10
2014,07,27,12,22,24.10
2014,07,27,12,23,24.00
2014,07,27,12,24,24.00
2014,07,27,12,25,23.90
2014,07,27,12,26,23.90
2014,07,27,12,27,23.90
2014,07,27,12,28,24.00
2014,07,27,12,29,24.10
2014,07,27,12,30,24.20
2014,07,27,12,31,24.30
2014,07,27,12,32,24.30
2014,07,27,12,33,24.30
2014,07,27,12,34,24.30
2014,07,27,12,35,24.40
2014,07,27,12,36,24.40
2014,07,27,12,37,24.40
2014,07,27,12,38,24.50
2014,07,27,12,39,24.50
2014,07,27,12,40,24.60
2014,07,27,12,41,24.60
2014,07,27,12,42,24.60
2014,07,27,12,43,24.70
2014,07,27,12,44,24.70
2014,07,27,12,45,24.60
2014,07,27,12,46,24.60
2014,07,27,12,47,24.50
2014,07,27,12,48,24.50
2014,07,27,12,49,24.50
2014,07,27,12,50,24.60
2014,07,27,12,51,24.60
2014,07,27,12,52,24.70
2014,07,27,12,53,24.70
2014,07,27,12,54,24.80
2014,07,27,12,55,24.80
2014,07,27,12,56,24.90
2014,07,27,12,57,24.90
2014,07,27,12,58,24.90
2014,07,27,12,59,25.00
2014,07,27,13,00,25.00
2014,07,27,13,01,25.10
2014,07,27,13,02,25.20
2014,07,27,13,03,25.20
2014,07,27,13,04,25.30
2014,07,27,13,05,25.30
2014,07,27,13,06,25.30
2014,07,27,13,07,25.30
2014,07,27,13,08,25.30
2014,07,27,13,09,25.30
2014,07,27,13,10,25.40
2014,07,27,13,11,25.40
2014,07,27,13,12,25.40
2014,07,27,13,13,25.40
2014,07,27,13,14,25.40
2014,07,27,13,15,25.40
2014,07,27,13,16,25.40
2014,07,27,13,17,25.40
2014,07,27,13,18,25.40
2014,07,27,13,19,25.40
2014,07,27,13,20,25.30
2014,07,27,13,21,25.30
2014,07,27,13,22,25.30
2014,07,27,13,23,25.30
2014,07,27,13,24,25.40
2014,07,27,13,25,25.40
2014,07,27,13,26,25.40
2014,07,27,13,27,25.40
2014,07,27,13,28,25.40
2014,07,27,13,29,25.40
2014,07,27,13,30,25.40
2014,07,27,13,31,25.40
2014,07,27,13,32,25.30
2014,07,27,13,33,25.30
2014,07,27,13,34,25.30
2014,07,27,13,35,25.30
2014,07,27,13,36,25.30
2014,07,27,13,37,25.20
2014,07,27,13,38,25.20
2014,07,27,13,39,25.20
2014,07,27,13,40,25.20
2014,07,27,13,41,25.20
2014,07,27,13,42,25.20
2014,07,27,13,43,25.20
2014,07,27,13,44,25.20
2014,07,27,13,45,25.10
2014,07,27,13,46,25.10
2014,07,27,13,47,25.10
2014,07,27,13,48,25.10
2014,07,27,13,49,25.10
2014,07,27,13,50,25.10
2014,07,27,13,51,25.10
2014,07,27,13,52,25.10
2014,07,27,13,53,25.10
2014,07,27,13,54,25.00
2014,07,27,13,55,25.00
2014,07,27,13,56,25.10
2014,07,27,13,57,25.10
2014,07,27,13,58,25.10
2014,07,27,13,59,25.10
2014,07,27,14,00,25.20
2014,07,27,14,01,25.20
2014,07,27,14,02,25.20
2014,07,27,14,03,25.20
2014,07,27,14,04,25.20
2014,07,27,14,05,25.20
2014,07,27,14,06,25.20
2014,07,27,14,07,25.10
2014,07,27,14,08,25.20
2014,07,27,14,09,25.20
2014,07,27,14,10,25.20
2014,07,27,14,11,25.20
2014,07,27,14,12,25.30
2014,07,27,14,13,25.30
2014,07,27,14,14,25.40
2014,07,27,14,15,25.40
2014,07,27,14,16,25.50
2014,07,27,14,17,25.50
2014,07,27,14,18,25.50
2014,07,27,14,19,25.50
2014,07,27,14,20,25.50
2014,07,27,14,21,25.50
2014,07,27,14,22,25.60
2014,07,27,14,23,25.60
2014,07,27,14,24,25.60
2014,07,27,14,25,25.60
2014,07,27,14,26,25.60
2014,07,27,14,27,25.60
2014,07,27,14,28,25.60
2014,07,27,14,29,25.60
2014,07,27,14,30,25.60
2014,07,27,14,31,25.60
2014,07,27,14,32,25.50
2014,07,27,14,33,25.50
2014,07,27,14,34,25.50
2014,07,27,14,35,25.50
2014,07,27,14,36,25.50
2014,07,27,14,37,25.50
2014,07,27,14,38,25.50
2014,07,27,14,39,25.50
2014,07,27,14,40,25.50
2014,07,27,14,41,25.50
2014,07,27,14,42,25.50
2014,07,27,14,43,25.60
2014,07,27,14,44,25.60
2014,07,27,14,45,25.60
2014,07,27,14,46,25.70
2014,07,27,14,47,25.70
2014,07,27,14,48,25.70
2014,07,27,14,49,25.80
2014,07,27,14,50,25.80
2014,07,27,14,51,25.70
2014,07,27,14,52,25.60
2014,07,27,14,53,25.60
2014,07,27,14,54,25.50
2014,07,27,14,55,25.40
2014,07,27,14,56,25.40
2014,07,27,14,57,25.40
2014,07,27,14,58,25.40
2014,07,27,14,59,25.50
2014,07,27,15,00,25.50
2014,07,27,15,01,25.50
2014,07,27,15,02,25.60
2014,07,27,15,03,25.60
2014,07,27,15,04,25.60
2014,07,27,15,05,25.60
2014,07,27,15,06,25.60
2014,07,27,15,07,25.60
2014,07,27,15,08,25.60
2014,07,27,15,09,25.60
2014,07,27,15,10,25.60
2014,07,27,15,11,25.60
2014,07,27,15,12,25.60
2014,07,27,15,13,25.70
2014,07,27,15,14,25.60
2014,07,27,15,15,25.60
2014,07,27,15,16,25.60
2014,07,27,15,17,25.60
2014,07,27,15,18,25.70
2014,07,27,15,19,25.70
2014,07,27,15,20,25.70
2014,07,27,15,21,25.70
2014,07,27,15,22,25.80
2014,07,27,15,23,25.80
2014,07,27,15,24,25.90
2014,07,27,15,25,25.90
2014,07,27,15,26,26.00
2014,07,27,15,27,26.00
2014,07,27,15,28,26.10
2014,07,27,15,29,26.00
2014,07,27,15,30,26.00
2014,07,27,15,31,26.00
2014,07,27,15,32,26.00
2014,07,27,15,33,26.00
2014,07,27,15,34,26.00
2014,07,27,15,35,26.10
2014,07,27,15,36,26.10
2014,07,27,15,37,26.20
2014,07,27,15,38,26.20
2014,07,27,15,39,26.20
2014,07,27,15,40,26.20
2014,07,27,15,41,26.20
2014,07,27,15,42,26.20
2014,07,27,15,43,26.20
2014,07,27,15,44,26.20
2014,07,27,15,45,26.20
2014,07,27,15,46,26.30
2014,07,27,15,47,26.30
2014,07,27,15,48,26.30
2014,07,27,15,49,26.30
2014,07,27,15,50,26.30
2014,07,27,15,51,26.30
2014,07,27,15,52,26.30
2014,07,27,15,53,26.30
2014,07,27,15,54,26.40
2014,07,27,15,55,26.30
2014,07,27,15,56,26.30
2014,07,27,15,57,26.30
2014,07,27,15,58,26.30
2014,07,27,15,59,26.30
2014,07,27,16,00,26.30
2014,07,27,16,01,26.20
2014,07,27,16,02,26.20
2014,07,27,16,03,26.10
2014,07,27,16,04,26.10
2014,07,27,16,05,26.10
2014,07,27,16,06,26.20
2014,07,27,16,07,26.20
2014,07,27,16,08,26.30
2014,07,27,16,09,26.30
2014,07,27,16,10,26.30
2014,07,27,16,11,26.30
2014,07,27,16,12,26.40
2014,07,27,16,13,26.40
2014,07,27,16,14,26.30
2014,07,27,16,15,26.30
2014,07,27,16,16,26.30
2014,07,27,16,17,26.30
2014,07,27,16,18,26.40
2014,07,27,16,19,26.40
2014,07,27,16,20,26.50
2014,07,27,16,21,26.50
2014,07,27,16,22,26.50
2014,07,27,16,23,26.60
2014,07,27,16,24,26.50
2014,07,27,16,25,26.50
2014,07,27,16,26,26.60
2014,07,27,16,27,26.60
2014,07,27,16,28,26.60
2014,07,27,16,29,26.60
2014,07,27,16,30,26.60
2014,07,27,16,31,26.60
2014,07,27,16,32,26.60
2014,07,27,16,33,26.60
2014,07,27,16,34,26.60
2014,07,27,16,35,26.70
2014,07,27,16,36,26.70
2014,07,27,16,37,26.70
2014,07,27,16,38,26.70
2014,07,27,16,39,26.70
2014,07,27,16,40,26.70
2014,07,27,16,41,26.80
2014,07,27,16,42,26.80
2014,07,27,16,43,26.80
2014,07,27,16,44,26.80
2014,07,27,16,45,26.80
2014,07,27,16,46,26.80
2014,07,27,16,47,26.80
2014,07,27,16,48,26.80
2014,07,27,16,49,26.80
2014,07,27,16,50,26.90
2014,07,27,16,51,26.90
2014,07,27,16,52,26.90
2014,07,27,16,53,27.00
2014,07,27,16,54,27.00
2014,07,27,16,55,27.10
2014,07,27,16,56,27.10
2014,07,27,16,57,27.20
2014,07,27,16,58,27.20
2014,07,27,16,59,27.30
2014,07,27,17,00,27.30
2014,07,27,17,01,27.40
2014,07,27,17,02,27.40
2014,07,27,17,03,27.40
2014,07,27,17,04,27.40
2014,07,27,17,05,27.40
2014,07,27,17,06,27.40
2014,07,27,17,07,27.40
2014,07,27,17,08,27.40
2014,07,27,17,09,27.30
2014,07,27,17,10,27.30
2014,07,27,17,11,27.30
2014,07,27,17,12,27.30
2014,07,27,17,13,27.30
2014,07,27,17,14,27.30
2014,07,27,17,15,27.40
2014,07,27,17,16,27.40
2014,07,27,17,17,27.40
2014,07,27,17,18,27.30
2014,07,27,17,19,27.30